Location: Unspecified
(0.0000°N, 0.0000°E)
Time: 07:11:27
(UTC+00:00)

S-56A Canister/Altair - Visible Passes

Search period start: 20 October 2021 00:00
Search period end: 30 October 2021 00:00
Orbit: 631 x 2501 km, 38.9° (Epoch: 19 October)

Date Brightness Start Highest point End Pass type
(mag) Time Alt. Az. Time Alt. Az. Time Alt. Az.
20 Oct 10.5 19:45:50 10° NNW 19:56:15 29° NNE 19:56:15 29° NNE visible
20 Oct 11.3 21:51:15 10° NW 21:53:43 17° NW 21:53:43 17° NW visible
21 Oct 10.5 19:12:33 10° NNW 19:24:03 26° NNE 19:25:50 26° NE visible
21 Oct 10.8 21:17:32 10° NW 21:23:18 29° NW 21:23:18 29° NW visible
22 Oct 10.6 18:39:21 10° NNW 18:50:19 24° NNE 18:55:33 19° ENE visible
22 Oct 10.2 20:43:52 10° NW 20:53:02 43° NNW 20:53:02 43° NNW visible
23 Oct 10.8 18:06:18 10° NNW 18:16:32 21° NNE 18:25:27 11° ENE visible
23 Oct 9.8 20:10:17 10° NW 20:22:56 57° N 20:22:56 57° N visible
23 Oct 11.4 22:18:20 10° WNW 22:20:27 15° WNW 22:20:27 15° WNW visible
24 Oct 9.7 19:36:47 10° NW 19:51:18 54° NE 19:53:02 52° ENE visible
24 Oct 10.8 21:44:11 10° WNW 21:50:33 29° WNW 21:50:33 29° WNW visible
25 Oct 10.0 19:03:23 10° NNW 19:17:43 48° NE 19:23:20 34° E visible
25 Oct 10.1 21:10:08 10° WNW 21:20:53 50° W 21:20:53 50° W visible
26 Oct 10.2 18:30:05 10° NNW 18:44:04 43° NE 18:53:52 18° E visible
26 Oct 9.6 20:36:13 10° NW 20:50:58 71° SW 20:51:26 70° SSW visible
26 Oct 11.6 22:48:49 10° W 22:48:59 10° W 22:48:59 10° W visible
27 Oct 10.4 17:56:55 10° NNW 18:10:23 38° NE 18:22:39 10° E visible
27 Oct 9.7 20:02:25 10° NW 20:17:34 80° SW 20:22:13 48° SE visible
27 Oct 11.1 22:13:43 10° W 22:19:48 21° WSW 22:19:48 21° WSW visible
28 Oct 9.7 19:28:44 10° NW 19:44:05 89° SW 19:53:15 24° SE visible
28 Oct 10.7 21:38:56 10° W 21:50:05 28° SW 21:50:51 28° SW visible
29 Oct 9.8 18:55:12 10° NW 19:10:32 82° NE 19:23:29 10° SE visible
29 Oct 10.7 21:04:23 10° WNW 21:16:48 34° SW 21:22:08 25° S visible
